| time (UTC) | temp C | wind direction | speed KPH | gust KPH | rain 1hr cm | rain 24hr cm | rain mn cm | humidity % | barometer mb |
| 20260905130055 | 31 | 121 | 8.0 | 14.5 | 0.00 | 0.00 | 0.00 | 70 | 1020.6 |
| 20260905124554 | 31 | 121 | 4.8 | 11.3 | 0.00 | 0.00 | 0.00 | 70 | 1020.6 |
| 20260905123103 | 31 | 121 | 8.0 | 12.9 | 0.00 | 0.00 | 0.00 | 70 | 1020.6 |
| 20260905121602 | 31 | 121 | 4.8 | 14.5 | 0.00 | 0.00 | 0.00 | 70 | 1020.7 |
| 20260905120056 | 31 | 122 | 4.8 | 11.3 | 0.00 | 0.00 | 0.00 | 70 | 1020.7 |
| 20260905114555 | 31 | 122 | 6.4 | 12.9 | 0.00 | 0.00 | 0.00 | 70 | 1020.7 |
| 20260905113101 | 32 | 122 | 4.8 | 12.9 | 0.00 | 0.00 | 0.00 | 70 | 1020.6 |
| 20260905111644 | 31 | 122 | 9.7 | 16.1 | 0.00 | 0.00 | 0.00 | 70 | 1020.6 |
| 20260905110055 | 31 | 122 | 9.7 | 14.5 | 0.00 | 0.00 | 0.00 | 70 | 1020.5 |
| 20260905104559 | 30 | 122 | 8.0 | 14.5 | 0.00 | 0.00 | 0.00 | 70 | 1020.6 |
| 20260905103055 | 30 | 122 | 8.0 | 17.7 | 0.00 | 0.00 | 0.00 | 70 | 1020.5 |
| 20260905101600 | 30 | 122 | 8.0 | 12.9 | 0.00 | 0.00 | 0.00 | 70 | 1020.2 |
| 20260905100104 | 28 | 122 | 8.0 | 14.5 | 0.00 | 0.00 | 0.00 | 70 | 1019.9 |
| 20260905094556 | 30 | 122 | 1.6 | 6.4 | 0.00 | 0.00 | 0.00 | 70 | 1019.4 |
| 20260905093102 | 30 | 0 | 0.0 | 3.2 | 0.00 | 0.00 | 0.00 | 70 | 1019.3 |
| 20260905091551 | 28 | 122 | 0.0 | 14.5 | 0.00 | 0.00 | 0.00 | 70 | 1019.1 |
| 20260905090058 | 27 | 122 | 12.9 | 20.9 | 0.00 | 0.00 | 0.00 | 69 | 1018.8 |
| 20260905084604 | 26 | 160 | 9.7 | 16.1 | 0.00 | 0.00 | 0.00 | 69 | 1019.1 |
| 20260905083057 | 26 | 162 | 4.8 | 8.0 | 0.00 | 0.00 | 0.00 | 69 | 1019.9 |
| 20260905081553 | 25 | 162 | 1.6 | 8.0 | 0.00 | 0.00 | 0.00 | 69 | 1020.0 |
| 20260905080117 | 25 | 162 | 3.2 | 14.5 | 0.00 | 0.00 | 0.00 | 69 | 1020.5 |
| 20260905074557 | 25 | 162 | 6.4 | 14.5 | 0.00 | 0.00 | 0.00 | 69 | 1020.5 |
| 20260905073101 | 25 | 162 | 9.7 | 22.5 | 0.00 | 0.00 | 0.00 | 69 | 1020.2 |
| 20260905071555 | 27 | 180 | 6.4 | 9.7 | 0.00 | 0.00 | 0.00 | 70 | 1019.4 |
| 20260905064604 | 27 | 185 | 6.4 | 14.5 | 0.00 | 0.00 | 0.00 | 70 | 1018.0 |
| 20260905063056 | 26 | 188 | 8.0 | 12.9 | 0.00 | 0.00 | 0.00 | 69 | 1018.3 |
| 20260905061558 | 26 | 188 | 3.2 | 6.4 | 0.00 | 0.00 | 0.00 | 69 | 1018.4 |
| 20260905060048 | 26 | 188 | 0.0 | 1.6 | 0.00 | 0.00 | 0.00 | 69 | 1018.6 |
| 20260905054559 | 26 | 188 | 3.2 | 6.4 | 0.00 | 0.00 | 0.00 | 69 | 1018.3 |
| 20260905053108 | 26 | 0 | 0.0 | 9.7 | 0.00 | 0.00 | 0.00 | 69 | 1018.7 |
| 20260905051556 | 25 | 188 | 0.0 | 4.8 | 0.00 | 0.00 | 0.00 | 69 | 1018.4 |
| 20260905050108 | 25 | 188 | 1.6 | 3.2 | 0.00 | 0.00 | 0.00 | 69 | 1018.7 |
| 20260905044558 | 25 | 0 | 0.0 | 1.6 | 0.00 | 0.00 | 0.00 | 69 | 1018.8 |
| 20260905043102 | 26 | 188 | 0.0 | 3.2 | 0.00 | 0.00 | 0.00 | 69 | 1019.3 |
| 20260905041559 | 26 | 0 | 0.0 | 3.2 | 0.00 | 0.00 | 0.00 | 69 | 1019.2 |
| 20260905040107 | 26 | 188 | 1.6 | 6.4 | 0.00 | 0.00 | 0.00 | 70 | 1019.2 |
| 20260905034611 | 26 | 188 | 1.6 | 4.8 | 0.00 | 0.00 | 0.00 | 69 | 1018.8 |
| 20260905033115 | 26 | 0 | 1.6 | 1.6 | 0.00 | 0.00 | 0.00 | 70 | 1018.4 |
| 20260905031602 | 26 | 188 | 0.0 | 3.2 | 0.00 | 0.00 | 0.00 | 70 | 1018.2 |
| 20260905030104 | 26 | 188 | 1.6 | 3.2 | 0.00 | 0.00 | 0.00 | 70 | 1018.0 |
| 20260905024557 | 26 | 188 | 3.2 | 3.2 | 0.00 | 0.00 | 0.00 | 70 | 1017.8 |
| 20260905023111 | 26 | 0 | 0.0 | 1.6 | 0.00 | 0.00 | 0.00 | 70 | 1017.8 |
| 20260905021556 | 26 | 188 | 0.0 | 1.6 | 0.00 | 0.00 | 0.00 | 70 | 1017.8 |
| 20260905020055 | 26 | 188 | 0.0 | 1.6 | 0.00 | 0.00 | 0.00 | 70 | 1018.0 |
| 20260905014559 | 27 | 0 | 0.0 | 1.6 | 0.00 | 0.00 | 0.00 | 70 | 1018.1 |
| 20260905013056 | 27 | 0 | 0.0 | 0.0 | 0.00 | 0.00 | 0.00 | 70 | 1017.9 |
| 20260905011600 | 28 | 0 | 0.0 | 1.6 | 0.00 | 0.00 | 0.00 | 70 | 1018.2 |
| 20260905010107 | 29 | 188 | 0.0 | 6.4 | 0.00 | 0.00 | 0.00 | 71 | 1018.2 |
| 20260905004625 | 29 | 188 | 3.2 | 6.4 | 0.00 | 0.00 | 0.00 | 71 | 1018.1 |
| 20260905003104 | 28 | 188 | 3.2 | 6.4 | 0.00 | 0.00 | 0.00 | 71 | 1018.1 |
| 20260905001558 | 27 | 188 | 1.6 | 3.2 | 0.00 | 0.00 | 0.00 | 70 | 1018.4 |
| 20260905000135 | 26 | 188 | 1.6 | 1.6 | 0.00 | 0.00 | 0.00 | 70 | 1018.5 |
| 20260904234600 | 26 | 0 | 0.0 | 1.6 | 0.00 | 0.00 | 0.00 | 70 | 1018.5 |
| 20260904233058 | 26 | 188 | 0.0 | 4.8 | 0.00 | 0.00 | 0.00 | 70 | 1018.8 |
| 20260904231557 | 26 | 0 | 0.0 | 0.0 | 0.00 | 0.00 | 0.00 | 70 | 1018.9 |
| 20260904230114 | 27 | 0 | 0.0 | 1.6 | 0.00 | 0.00 | 0.00 | 71 | 1018.8 |
| 20260904224559 | 27 | 188 | 1.6 | 3.2 | 0.00 | 0.00 | 0.00 | 71 | 1019.0 |
| 20260904223100 | 27 | 0 | 0.0 | 4.8 | 0.00 | 0.00 | 0.00 | 71 | 1018.9 |
| 20260904221557 | 27 | 188 | 1.6 | 3.2 | 0.00 | 0.00 | 0.00 | 71 | 1019.2 |
| 20260904220100 | 28 | 188 | 3.2 | 4.8 | 0.00 | 0.00 | 0.00 | 71 | 1019.3 |
| 20260904214607 | 28 | 188 | 3.2 | 17.7 | 0.00 | 0.00 | 0.00 | 71 | 1019.4 |
| 20260904213059 | 30 | 191 | 6.4 | 9.7 | 0.00 | 0.00 | 0.00 | 72 | 1018.9 |
| 20260904211603 | 29 | 191 | 6.4 | 8.0 | 0.00 | 0.00 | 0.00 | 71 | 1018.9 |
| 20260904210055 | 29 | 191 | 3.2 | 12.9 | 0.00 | 0.00 | 0.00 | 72 | 1018.9 |
| 20260904204602 | 28 | 191 | 1.6 | 6.4 | 0.00 | 0.00 | 0.00 | 72 | 1019.3 |
| 20260904203100 | 29 | 0 | 0.0 | 6.4 | 0.00 | 0.00 | 0.00 | 72 | 1019.9 |
| 20260904201621 | 29 | 191 | 3.2 | 6.4 | 0.00 | 0.00 | 0.00 | 72 | 1019.9 |
| 20260904200100 | 29 | 0 | 0.0 | 3.2 | 0.00 | 0.00 | 0.00 | 72 | 1019.4 |
| 20260904194555 | 30 | 0 | 0.0 | 6.4 | 0.00 | 0.00 | 0.00 | 72 | 1019.3 |
| 20260904193100 | 29 | 191 | 1.6 | 3.2 | 0.00 | 0.00 | 0.00 | 72 | 1019.1 |
| 20260904191555 | 29 | 191 | 1.6 | 1.6 | 0.00 | 0.00 | 0.00 | 72 | 1019.1 |
| 20260904190056 | 28 | 191 | 0.0 | 3.2 | 0.00 | 0.00 | 0.00 | 72 | 1018.9 |
| 20260904184556 | 28 | 191 | 1.6 | 3.2 | 0.00 | 0.00 | 0.00 | 72 | 1018.8 |
| 20260904183113 | 29 | 0 | 0.0 | 3.2 | 0.00 | 0.00 | 0.00 | 72 | 1018.6 |
| 20260904181554 | 31 | 0 | 0.0 | 1.6 | 0.00 | 0.00 | 0.00 | 72 | 1018.9 |
| 20260904174557 | 31 | 191 | 3.2 | 11.3 | 0.00 | 0.00 | 0.00 | 73 | 1018.5 |
| 20260904173056 | 31 | 192 | 6.4 | 11.3 | 0.00 | 0.00 | 0.00 | 73 | 1018.0 |
| 20260904171611 | 31 | 192 | 3.2 | 6.4 | 0.00 | 0.00 | 0.00 | 73 | 1019.4 |
| 20260904170100 | 31 | 192 | 4.8 | 6.4 | 0.00 | 0.00 | 0.00 | 73 | 1019.7 |
| 20260904164610 | 31 | 192 | 1.6 | 3.2 | 0.00 | 0.00 | 0.00 | 73 | 1019.8 |
| 20260904163053 | 31 | 192 | 4.8 | 12.9 | 0.00 | 0.00 | 0.00 | 72 | 1019.7 |
| 20260904161552 | 30 | 192 | 3.2 | 4.8 | 0.00 | 0.00 | 0.00 | 72 | 1019.8 |
| 20260904154558 | 28 | 192 | 4.8 | 9.7 | 0.00 | 0.00 | 0.00 | 72 | 1020.7 |
| 20260904153109 | 27 | 192 | 6.4 | 20.9 | 0.00 | 0.00 | 0.00 | 71 | 1020.8 |
| 20260904151553 | 28 | 192 | 9.7 | 16.1 | 0.00 | 0.00 | 0.00 | 71 | 1021.0 |
| 20260904150100 | 28 | 193 | 6.4 | 12.9 | 0.00 | 0.00 | 0.00 | 72 | 1021.1 |
| 20260904144559 | 27 | 193 | 0.0 | 24.1 | 0.00 | 0.00 | 0.00 | 71 | 1020.9 |
| 20260904143055 | 30 | 158 | 12.9 | 22.5 | 0.00 | 0.00 | 0.00 | 72 | 1021.0 |
| 20260904141555 | 29 | 118 | 8.0 | 14.5 | 0.00 | 0.00 | 0.00 | 71 | 1019.7 |
| 20260904140104 | 28 | 118 | 8.0 | 17.7 | 0.00 | 0.00 | 0.00 | 71 | 1020.3 |
| 20260904134601 | 28 | 122 | 14.5 | 19.3 | 0.00 | 0.00 | 0.00 | 71 | 1020.4 |
| 20260904133059 | 28 | 122 | 0.0 | 6.4 | 0.00 | 0.00 | 0.00 | 71 | 1021.8 |
| 20260904131607 | 28 | 122 | 1.6 | 4.8 | 0.00 | 0.00 | 0.00 | 71 | 1022.2 |